Location: Sulphur Springs (historical)
(38.1246°N, 122.1900°W)
Time: 07:02:10
(UTC+00:00)

Cosmos 1484 Rocket - Pass Details

Date: 29 October 2020
Orbit: 504 x 560 km, 97.4° (Epoch: 02 December)

Event Time Altitude Azimuth Distance (km) Brightness Sun altitude
Rises 13:15:27 0° 2° (N) 2,681 6.3 -15.6°
Reaches altitude 10° 13:17:42 10° 353° (N) 1,777 5.3 -15.2°
Maximum altitude 13:21:12 34° 287° (WNW) 866 3.3 -14.5°
Drops below altitude 10° 13:24:36 10° 222° (SW) 1,737 5.0 -13.8°
Sets 13:26:47 0° 213° (SSW) 2,611 6.0 -13.4°
